�������l�o���
Date,Time,MP-1(��Sv/h),MP-2(��Sv/h),MP-3(��Sv/h),MP-4(��Sv/h),MP-5(��Sv/h),MP-6(��Sv/h),MP-7(��Sv/h),MP-8(��Sv/h),����,����(m/s),���J
2019/01/28,00:00,0.745,1.064,0.782,1.398,1.000,0.432,0.780,0.745,���k��,3.1,��
2019/01/28,00:10,0.746,1.064,0.781,1.397,0.999,0.433,0.779,0.744,���k��,3.8,��
2019/01/28,00:20,0.746,1.065,0.782,1.397,0.997,0.433,0.780,0.744,���k��,3.7,��
2019/01/28,00:30,0.744,1.064,0.778,1.396,0.999,0.431,0.780,0.745,��,2.6,��
2019/01/28,00:40,0.744,1.065,0.779,1.399,0.997,0.432,0.781,0.744,��,2.8,��
2019/01/28,00:50,0.745,1.063,0.779,1.397,0.998,0.432,0.780,0.744,���쐼,2.5,��
2019/01/28,01:00,0.745,1.062,0.779,1.396,1.000,0.432,0.780,0.745,��,4.3,��
2019/01/28,01:10,0.745,1.063,0.780,1.398,0.998,0.431,0.780,0.743,��,4.8,��
2019/01/28,01:20,0.745,1.061,0.781,1.399,0.998,0.431,0.781,0.744,��,3.8,��
2019/01/28,01:30,0.745,1.063,0.780,1.399,0.998,0.432,0.780,0.745,��,3.1,��
2019/01/28,01:40,0.745,1.063,0.780,1.396,1.001,0.432,0.781,0.744,�쐼,2.6,��
2019/01/28,01:50,0.745,1.065,0.779,1.398,0.998,0.432,0.780,0.744,��,2.6,��
2019/01/28,02:00,0.746,1.062,0.779,1.396,0.999,0.432,0.782,0.743,���쐼,2.5,��
2019/01/28,02:10,0.742,1.062,0.782,1.399,0.998,0.434,0.779,0.745,��,2.6,��
2019/01/28,02:20,0.745,1.063,0.779,1.396,0.999,0.432,0.780,0.745,���k��,2.5,��
2019/01/28,02:30,0.744,1.064,0.778,1.398,0.996,0.431,0.779,0.746,��,2.8,��
2019/01/28,02:40,0.745,1.063,0.781,1.399,0.997,0.431,0.780,0.744,���쐼,1.9,��
2019/01/28,02:50,0.745,1.065,0.780,1.397,0.999,0.432,0.781,0.746,��,1.7,��
2019/01/28,03:00,0.746,1.063,0.780,1.398,0.998,0.431,0.781,0.744,��,2.2,��
2019/01/28,03:10,0.743,1.063,0.780,1.396,1.000,0.432,0.779,0.746,��,1.7,��
2019/01/28,03:20,0.745,1.063,0.779,1.399,0.999,0.431,0.781,0.745,��,1.2,��
2019/01/28,03:30,0.744,1.064,0.780,1.400,1.001,0.431,0.782,0.744,��쓌,1.5,��
2019/01/28,03:40,0.744,1.063,0.780,1.397,0.998,0.432,0.782,0.743,�쓌,1.7,��
2019/01/28,03:50,0.745,1.062,0.780,1.401,1.000,0.432,0.780,0.744,��쓌,1.7,��
2019/01/28,04:00,0.746,1.065,0.780,1.396,0.998,0.431,0.780,0.744,��,1.7,��
2019/01/28,04:10,0.747,1.063,0.780,1.398,0.997,0.433,0.782,0.745,��쐼,1.5,��
2019/01/28,04:20,0.745,1.065,0.781,1.398,0.997,0.433,0.781,0.745,��,1.8,��
2019/01/28,04:30,0.743,1.065,0.779,1.399,0.999,0.431,0.779,0.746,���k��,1.2,��
2019/01/28,04:40,0.744,1.062,0.782,1.396,0.999,0.433,0.779,0.746,���쐼,1.7,��
2019/01/28,04:50,0.745,1.064,0.779,1.399,0.998,0.432,0.783,0.743,���쐼,1.2,��
2019/01/28,05:00,0.745,1.062,0.775,1.399,0.999,0.432,0.781,0.744,��,1.2,��
2019/01/28,05:10,0.748,1.063,0.780,1.396,0.998,0.434,0.782,0.745,��쐼,2.2,��
2019/01/28,05:20,0.744,1.065,0.780,1.401,0.999,0.432,0.782,0.746,�쐼,3.5,��
2019/01/28,05:30,0.743,1.063,0.780,1.397,1.000,0.432,0.783,0.746,��쐼,3.4,��
2019/01/28,05:40,0.743,1.064,0.780,1.399,1.001,0.432,0.782,0.744,��,3.5,��
2019/01/28,05:50,0.744,1.063,0.781,1.398,0.998,0.433,0.780,0.746,��,4.1,��
2019/01/28,06:00,0.746,1.064,0.780,1.400,0.998,0.435,0.781,0.745,��,5.0,��
2019/01/28,06:10,0.746,1.063,0.781,1.397,1.000,0.432,0.781,0.745,��,5.3,��
2019/01/28,06:20,0.745,1.063,0.779,1.399,1.000,0.431,0.782,0.746,��,5.5,��
2019/01/28,06:30,0.745,1.065,0.780,1.398,0.999,0.431,0.783,0.747,��쐼,5.3,��
2019/01/28,06:40,0.745,1.066,0.780,1.399,0.998,0.432,0.782,0.746,��쐼,5.2,��
2019/01/28,06:50,0.746,1.062,0.781,1.401,0.998,0.433,0.781,0.745,��쐼,4.9,��
2019/01/28,07:00,0.743,1.063,0.779,1.397,1.000,0.434,0.781,0.746,��,3.9,��
2019/01/28,07:10,0.748,1.064,0.781,1.398,0.999,0.433,0.782,0.745,��,4.1,��
2019/01/28,07:20,0.745,1.062,0.782,1.400,0.998,0.433,0.780,0.745,��쐼,4.4,��
2019/01/28,07:30,0.743,1.064,0.780,1.398,1.000,0.433,0.782,0.745,��,5.7,��
2019/01/28,07:40,0.744,1.064,0.780,1.399,0.998,0.432,0.782,0.745,��,5.7,��
2019/01/28,07:50,0.747,1.064,0.779,1.400,0.999,0.432,0.782,0.746,��,6.6,��
2019/01/28,08:00,0.745,1.064,0.778,1.399,1.000,0.433,0.783,0.746,��,7.2,��
2019/01/28,08:10,0.746,1.065,0.779,1.397,1.002,0.432,0.782,0.745,��,7.7,��
2019/01/28,08:20,0.747,1.064,0.781,1.399,0.999,0.433,0.783,0.747,��쐼,8.6,��
2019/01/28,08:30,0.744,1.063,0.781,1.402,1.000,0.430,0.783,0.746,��,7.6,��
2019/01/28,08:40,0.743,1.062,0.781,1.397,1.000,0.432,0.781,0.746,��,6.9,��
2019/01/28,08:50,0.746,1.062,0.779,1.398,0.999,0.431,0.783,0.747,��쐼,6.4,��
2019/01/28,09:00,0.746,1.064,0.781,1.400,0.998,0.433,0.784,0.746,��쐼,5.5,��
2019/01/28,09:10,0.745,1.062,0.778,1.399,0.996,0.433,0.784,0.747,��쐼,5.1,��
2019/01/28,09:20,0.748,1.066,0.780,1.398,1.001,0.431,0.784,0.746,��쐼,7.1,��
2019/01/28,09:30,0.746,1.065,0.783,1.399,0.999,0.432,0.785,0.747,��쐼,6.8,��
2019/01/28,09:40,0.748,1.064,0.779,1.403,1.002,0.434,0.784,0.747,��,6.8,��
2019/01/28,09:50,0.749,1.060,0.782,1.400,1.001,0.433,0.784,0.746,��,7.6,��
2019/01/28,10:00,0.748,1.063,0.781,1.398,1.000,0.432,0.784,0.747,��,6.6,��
2019/01/28,10:10,0.750,1.062,0.784,1.401,1.000,0.433,0.785,0.746,��쐼,6.6,��
2019/01/28,10:20,0.750,1.061,0.781,1.400,1.000,0.432,0.785,0.746,��,7.0,��
2019/01/28,10:30,0.751,1.059,0.782,1.400,1.003,0.433,0.785,0.747,��,6.6,��
2019/01/28,10:40,0.750,1.064,0.783,1.401,1.004,0.435,0.785,0.747,��,6.8,��
2019/01/28,10:50,0.751,1.065,0.784,1.399,1.002,0.437,0.784,0.747,��,7.5,��
2019/01/28,11:00,0.756,1.065,0.784,1.399,0.999,0.435,0.784,0.745,��,8.6,��
2019/01/28,11:10,0.756,1.067,0.786,1.404,1.001,0.435,0.785,0.747,��,8.5,��
2019/01/28,11:20,0.757,1.069,0.785,1.399,1.007,0.435,0.785,0.747,��,8.0,��
2019/01/28,11:30,0.758,1.071,0.786,1.401,1.008,0.436,0.784,0.746,��,7.3,��
2019/01/28,11:40,0.759,1.073,0.789,1.406,1.008,0.437,0.784,0.749,��,8.7,��
2019/01/28,11:50,0.760,1.073,0.786,1.404,1.009,0.436,0.786,0.747,��,8.0,��
2019/01/28,12:00,0.761,1.073,0.787,1.406,1.010,0.437,0.787,0.748,��,8.7,��
2019/01/28,12:10,0.762,1.078,0.789,1.405,1.012,0.437,0.786,0.749,��쓌,8.8,��
2019/01/28,12:20,0.762,1.082,0.791,1.408,1.014,0.439,0.786,0.748,��,9.3,��
2019/01/28,12:30,0.763,1.085,0.792,1.410,1.013,0.438,0.786,0.749,��,10.2,��
2019/01/28,12:40,0.765,1.086,0.793,1.411,1.017,0.440,0.786,0.750,��,10.5,��
2019/01/28,12:50,0.767,1.089,0.793,1.411,1.017,0.439,0.788,0.749,��,11.6,��
2019/01/28,13:00,0.768,1.092,0.793,1.413,1.020,0.442,0.789,0.751,��,12.2,��
2019/01/28,13:10,0.769,1.096,0.793,1.414,1.022,0.440,0.789,0.749,��,13.3,��
2019/01/28,13:20,0.770,1.093,0.795,1.415,1.022,0.441,0.790,0.750,��,9.9,��
2019/01/28,13:30,0.770,1.095,0.796,1.417,1.025,0.444,0.791,0.749,��,10.2,��
2019/01/28,13:40,0.765,1.099,0.796,1.420,1.026,0.443,0.790,0.749,��,9.2,��
2019/01/28,13:50,0.768,1.102,0.796,1.422,1.027,0.444,0.791,0.749,��쓌,11.6,��
2019/01/28,14:00,0.771,1.101,0.796,1.421,1.026,0.442,0.790,0.748,��쓌,10.7,��
2019/01/28,14:10,0.773,1.105,0.797,1.423,1.030,0.437,0.789,0.747,��쓌,11.0,��
2019/01/28,14:20,0.773,1.104,0.798,1.424,1.030,0.435,0.790,0.749,��쓌,9.3,��
2019/01/28,14:30,0.772,1.112,0.799,1.426,1.032,0.440,0.792,0.747,��쓌,8.5,��
2019/01/28,14:40,0.770,1.109,0.799,1.429,1.030,0.448,0.791,0.746,��,6.6,��
2019/01/28,14:50,0.770,1.112,0.799,1.429,1.034,0.445,0.793,0.749,��쐼,5.6,��
2019/01/28,15:00,0.771,1.111,0.800,1.431,1.034,0.446,0.794,0.748,��,5.0,��
2019/01/28,15:10,0.771,1.113,0.802,1.434,1.036,0.446,0.793,0.748,��쐼,4.8,��
2019/01/28,15:20,0.771,1.116,0.800,1.433,1.035,0.447,0.794,0.751,�쐼,6.6,��
2019/01/28,15:30,0.771,1.121,0.800,1.434,1.036,0.447,0.795,0.751,�쐼,5.5,��
2019/01/28,15:40,0.769,1.118,0.800,1.434,1.035,0.445,0.795,0.750,�쐼,7.0,��
2019/01/28,15:50,0.771,1.121,0.802,1.437,1.038,0.447,0.796,0.752,�쐼,6.9,��
2019/01/28,16:00,0.772,1.122,0.802,1.435,1.038,0.447,0.794,0.751,�쐼,6.4,��
2019/01/28,16:10,0.770,1.123,0.802,1.437,1.038,0.449,0.794,0.752,���쐼,5.4,��
2019/01/28,16:20,0.770,1.122,0.800,1.438,1.036,0.448,0.795,0.751,�쐼,5.5,��
2019/01/28,16:30,0.771,1.123,0.801,1.438,1.040,0.448,0.794,0.751,���쐼,4.6,��
2019/01/28,16:40,0.772,1.126,0.802,1.439,1.040,0.447,0.794,0.751,���쐼,5.6,��
2019/01/28,16:50,0.771,1.125,0.802,1.441,1.037,0.447,0.794,0.751,��,5.2,��
2019/01/28,17:00,0.773,1.121,0.800,1.441,1.040,0.447,0.793,0.751,��,5.5,��
2019/01/28,17:10,0.770,1.121,0.802,1.442,1.041,0.448,0.793,0.750,���쐼,4.9,��
2019/01/28,17:20,0.773,1.122,0.801,1.442,1.038,0.447,0.792,0.750,���쐼,4.8,��
2019/01/28,17:30,0.771,1.121,0.801,1.444,1.042,0.446,0.794,0.750,��,3.5,��
2019/01/28,17:40,0.772,1.125,0.803,1.441,1.039,0.446,0.792,0.749,��,2.3,��
2019/01/28,17:50,0.771,1.124,0.800,1.443,1.040,0.446,0.793,0.751,���쐼,2.3,��
2019/01/28,18:00,0.770,1.123,0.803,1.441,1.039,0.447,0.792,0.751,���쐼,2.3,��
2019/01/28,18:10,0.769,1.123,0.801,1.444,1.038,0.446,0.791,0.749,��,4.9,��
2019/01/28,18:20,0.770,1.126,0.801,1.442,1.040,0.446,0.792,0.750,���k��,5.7,��
2019/01/28,18:30,0.772,1.132,0.800,1.443,1.039,0.446,0.792,0.750,���k��,8.9,��
2019/01/28,18:40,0.772,1.128,0.800,1.444,1.039,0.445,0.792,0.752,���k��,10.6,��
2019/01/28,18:50,0.770,1.128,0.800,1.444,1.040,0.444,0.792,0.750,���k��,9.8,��
2019/01/28,19:00,0.770,1.128,0.802,1.445,1.040,0.444,0.794,0.751,�k��,10.9,��
2019/01/28,19:10,0.770,1.130,0.800,1.445,1.039,0.444,0.794,0.750,�k��,9.3,�L
2019/01/28,19:20,0.768,1.131,0.801,1.447,1.040,0.445,0.794,0.749,�k��,9.7,�L
2019/01/28,19:30,0.768,1.129,0.801,1.446,1.039,0.445,0.792,0.749,�k��,11.3,��
2019/01/28,19:40,0.769,1.128,0.802,1.448,1.039,0.445,0.791,0.750,�k��,9.7,��
2019/01/28,19:50,0.769,1.129,0.801,1.448,1.041,0.445,0.793,0.750,�k��,9.4,��
2019/01/28,20:00,0.771,1.130,0.801,1.448,1.039,0.446,0.793,0.751,�k��,7.6,��
2019/01/28,20:10,0.772,1.129,0.800,1.449,1.040,0.444,0.792,0.750,�k��,10.2,��
2019/01/28,20:20,0.771,1.132,0.800,1.451,1.042,0.444,0.792,0.751,�k��,10.5,��
2019/01/28,20:30,0.770,1.130,0.802,1.448,1.041,0.445,0.793,0.752,�k��,7.8,��
2019/01/28,20:40,0.771,1.132,0.801,1.453,1.040,0.445,0.795,0.750,���k��,7.8,��
2019/01/28,20:50,0.771,1.130,0.802,1.451,1.042,0.445,0.793,0.751,�k��,8.6,��
2019/01/28,21:00,0.769,1.132,0.802,1.452,1.042,0.445,0.793,0.751,�k��,8.7,��
2019/01/28,21:10,0.771,1.131,0.802,1.452,1.040,0.445,0.795,0.751,�k��,6.9,��
2019/01/28,21:20,0.769,1.132,0.801,1.451,1.040,0.444,0.795,0.752,���k��,10.0,��
2019/01/28,21:30,0.772,1.129,0.803,1.453,1.039,0.443,0.792,0.751,���k��,7.6,��
2019/01/28,21:40,0.768,1.129,0.803,1.451,1.040,0.443,0.793,0.751,���k��,6.4,��
2019/01/28,21:50,0.771,1.132,0.803,1.453,1.039,0.446,0.792,0.750,���k��,5.0,��
2019/01/28,22:00,0.771,1.132,0.801,1.452,1.042,0.445,0.792,0.752,���k��,3.4,��
2019/01/28,22:10,0.770,1.128,0.802,1.454,1.042,0.445,0.793,0.750,���k��,5.7,��
2019/01/28,22:20,0.769,1.129,0.801,1.452,1.040,0.444,0.792,0.750,���k��,6.5,��
2019/01/28,22:30,0.768,1.132,0.800,1.453,1.040,0.444,0.792,0.750,���k��,7.0,��
2019/01/28,22:40,0.769,1.130,0.802,1.453,1.039,0.446,0.792,0.751,���k��,6.5,��
2019/01/28,22:50,0.769,1.131,0.802,1.453,1.037,0.444,0.791,0.749,���k��,7.0,��
2019/01/28,23:00,0.771,1.128,0.803,1.454,1.038,0.443,0.793,0.750,���k��,5.4,��
2019/01/28,23:10,0.769,1.130,0.801,1.454,1.042,0.443,0.791,0.751,���k��,4.8,��
2019/01/28,23:20,0.769,1.133,0.802,1.453,1.041,0.444,0.792,0.751,���k��,3.8,��
2019/01/28,23:30,0.769,1.130,0.800,1.454,1.039,0.444,0.791,0.753,�k��,5.6,��
2019/01/28,23:40,0.768,1.132,0.800,1.454,1.037,0.444,0.792,0.748,���k��,4.6,��
2019/01/28,23:50,0.770,1.128,0.799,1.453,1.040,0.445,0.794,0.750,���k��,4.4,��
